EW4071 Weather Reports


Display with metric or nautical units.
time (UTC)temp
F
wind
direction
speed
MPH
gust
MPH
rain 1hr
in
rain 24hr
in
rain mn
in
humidity
%
barometer
mb
20260831043049 86 151 2.0 9.0 0.00 0.00 0.00 48 1008.8
20260831041548 87 163 4.0 10.0 0.00 0.00 0.00 48 1008.7
20260831040047 87 145 4.0 9.0 0.00 0.00 0.00 47 1008.7
20260831034546 87 132 3.0 9.0 0.00 0.00 0.00 46 1008.6
20260831033046 87 134 0.0 0.0 0.00 0.00 0.00 45 1008.5
20260831031547 88 142 0.0 2.0 0.00 0.00 0.00 45 1008.4
20260831030104 88 157 0.0 1.0 0.00 0.00 0.00 45 1008.2
20260831024609 88 153 0.0 0.0 0.00 0.00 0.00 44 1008.0
20260831023044 88 145 0.0 0.0 0.00 0.00 0.00 43 1007.9
20260831021542 90 148 0.0 0.0 0.00 0.00 0.00 42 1007.7
20260831020043 90 149 0.0 0.0 0.00 0.00 0.00 42 1007.5
20260831014542 90 150 0.0 0.0 0.00 0.00 0.00 42 1007.2
20260831013046 92 137 0.0 7.0 0.00 0.00 0.00 40 1007.2
20260831011541 92 141 0.0 5.0 0.00 0.00 0.00 40 1007.0
20260831010041 94 151 1.0 9.0 0.00 0.00 0.00 38 1006.9
20260831004539 95 142 2.0 10.0 0.00 0.00 0.00 38 1006.9
20260831003039 96 147 0.0 10.0 0.00 0.00 0.00 37 1006.8
20260831001538 97 151 4.0 12.0 0.00 0.00 0.00 35 1006.8
20260831000038 98 171 6.0 15.0 0.00 0.00 0.00 33 1006.8
20260830234539 99 162 8.0 13.0 0.00 0.00 0.00 32 1006.7
20260830233035 99 135 6.0 12.0 0.00 0.00 0.00 33 1006.5
20260830231536 100 187 10.0 16.0 0.00 0.00 0.00 32 1006.4
20260830230037 101 196 11.0 17.0 0.00 0.00 0.00 29 1006.5
20260830224541 102 168 6.0 13.0 0.00 0.00 0.00 30 1006.4
20260830223038 102 185 9.0 17.0 0.00 0.00 0.00 29 1006.3
20260830221534 102 197 7.0 13.0 0.00 0.00 0.00 30 1006.4
20260830220032 102 216 10.0 16.0 0.00 0.00 0.00 30 1006.4
20260830214531 102 190 7.0 16.0 0.00 0.00 0.00 30 1006.4
20260830213030 102 213 12.0 20.0 0.00 0.00 0.00 30 1006.5
20260830211528 102 185 5.0 15.0 0.00 0.00 0.00 31 1006.6
20260830210025 102 163 7.0 16.0 0.00 0.00 0.00 32 1006.9
20260830204522 102 175 11.0 17.0 0.00 0.00 0.00 31 1007.1
20260830203031 102 149 8.0 15.0 0.00 0.00 0.00 32 1007.2
20260830201535 101 156 4.0 20.0 0.00 0.00 0.00 33 1007.4
20260830200019 101 190 7.0 17.0 0.00 0.00 0.00 34 1007.6
20260830194514 101 162 11.0 18.0 0.00 0.00 0.00 34 1007.8
20260830193011 101 220 12.0 18.0 0.00 0.00 0.00 35 1008.2
20260830191510 100 228 7.0 18.0 0.00 0.00 0.00 35 1008.3
20260830190025 100 162 13.0 21.0 0.00 0.00 0.00 36 1008.4
20260830184506 101 253 13.0 20.0 0.00 0.00 0.00 37 1008.5
20260830183003 99 208 11.0 19.0 0.00 0.00 0.00 37 1008.7
20260830181502 99 168 10.0 21.0 0.00 0.00 0.00 39 1008.8
20260830174601 98 277 4.0 18.0 0.00 0.00 0.00 40 1009.1
20260830173108 97 202 12.0 20.0 0.00 0.00 0.00 41 1009.3
20260830171550 96 194 11.0 19.0 0.00 0.00 0.00 42 1009.7
20260830170047 95 175 11.0 20.0 0.00 0.00 0.00 43 1009.9
20260830164605 94 202 11.0 18.0 0.00 0.00 0.00 44 1010.0
20260830163057 94 232 7.0 17.0 0.00 0.00 0.00 44 1010.1
20260830161541 93 201 7.0 18.0 0.00 0.00 0.00 47 1010.2
20260830160035 91 164 10.0 16.0 0.00 0.00 0.00 48 1010.2
20260830154534 91 199 11.0 17.0 0.00 0.00 0.00 48 1010.3
20260830153028 90 173 10.0 19.0 0.00 0.00 0.00 49 1010.2
20260830151537 89 237 10.0 17.0 0.00 0.00 0.00 50 1010.2
20260830150020 87 147 8.0 14.0 0.00 0.00 0.00 53 1010.3
20260830144516 86 161 10.0 17.0 0.00 0.00 0.00 54 1010.4
20260830143012 85 157 9.0 14.0 0.00 0.00 0.00 54 1010.5
20260830141510 84 155 10.0 14.0 0.00 0.00 0.00 56 1010.4
20260830140006 82 157 8.0 13.0 0.00 0.00 0.00 60 1010.6
20260830134509 81 153 7.0 15.0 0.00 0.00 0.00 61 1010.6
20260830133001 80 166 6.0 11.0 0.00 0.00 0.00 63 1010.8
20260830131614 79 157 0.0 9.0 0.00 0.00 0.00 63 1010.9
20260830130055 79 157 1.0 11.0 0.00 0.00 0.00 63 1010.8
20260830124607 78 143 1.0 11.0 0.00 0.00 0.00 64 1010.9
20260830123053 78 143 0.0 8.0 0.00 0.00 0.00 64 1010.9
20260830121548 77 137 0.0 9.0 0.00 0.00 0.00 65 1010.8
20260830120051 77 163 0.0 9.0 0.00 0.00 0.00 65 1010.6
20260830114546 77 147 2.0 9.0 0.00 0.00 0.00 64 1010.4
20260830113044 77 147 0.0 0.0 0.00 0.00 0.00 65 1010.4
20260830111543 77 147 0.0 5.0 0.00 0.00 0.00 64 1010.4
20260830110045 78 146 0.0 2.0 0.00 0.00 0.00 63 1010.3
20260830104538 78 143 0.0 1.0 0.00 0.00 0.00 62 1010.3
20260830103037 79 153 2.0 9.0 0.00 0.00 0.00 60 1010.2
20260830101532 80 131 5.0 10.0 0.00 0.00 0.00 59 1010.3
20260830100029 80 164 6.0 11.0 0.00 0.00 0.00 57 1010.2
20260830094527 81 164 4.0 11.0 0.00 0.00 0.00 56 1010.3
20260830093031 81 159 8.0 12.0 0.00 0.00 0.00 55 1010.0
20260830091523 81 154 7.0 14.0 0.00 0.00 0.00 55 1009.9
20260830090037 82 154 6.0 14.0 0.00 0.00 0.00 54 1009.9
20260830084521 82 160 5.0 13.0 0.00 0.00 0.00 53 1009.9
20260830083051 82 213 5.0 14.0 0.00 0.00 0.00 53 1009.7
20260830081618 82 175 5.0 13.0 0.00 0.00 0.00 54 1009.5
20260830080017 82 166 4.0 15.0 0.00 0.00 0.00 56 1009.6
20260830074515 81 149 2.0 8.0 0.00 0.00 0.00 57 1009.7
20260830073015 82 157 4.0 9.0 0.00 0.00 0.00 56 1009.5
20260830071517 82 147 5.0 9.0 0.00 0.00 0.00 55 1009.5
20260830070016 82 138 3.0 10.0 0.00 0.00 0.00 57 1009.6
20260830064522 82 149 1.0 9.0 0.00 0.00 0.00 56 1009.8
20260830063009 82 146 0.0 0.0 0.00 0.00 0.00 56 1009.9
20260830061510 83 149 0.0 7.0 0.00 0.00 0.00 55 1010.0
20260830060005 84 135 1.0 9.0 0.00 0.00 0.00 53 1009.8
20260830054557 84 168 4.0 7.0 0.00 0.00 0.00 52 1009.9
20260830053056 84 147 3.0 9.0 0.00 0.00 0.00 52 1009.8
20260830051557 85 156 4.0 10.0 0.00 0.00 0.00 51 1009.8
20260830050057 85 148 0.0 0.0 0.00 0.00 0.00 50 1009.9
20260830044552 85 166 3.0 11.0 0.00 0.00 0.00 49 1009.9